Regional Weather Roundup
Issued by NWS

Home | Current Version | Previous Version | Graphics & Text | Print | Product List | Glossary On
Versions: 1 2 3 4 5 6 7 8 9 10 11 12 13 14 15 16 17 18 19 20 21 22 23 24 25 26 27 28 29 30 31 32 33 34 35 36 37 38 39 40 41 42 43 44 45 46 47 48 49 50
000
ASUS43 KLMK 030010
RWRKY
KENTUCKY REGIONAL WEATHER ROUNDUP
NATIONAL WEATHER SERVICE LOUISVILLE KY
700 PM EST MON MAR 02 2015

NOTE "FAIR" INDICATES FEW OR NO CLOUDS BELOW 12,000 FEET
WITH NO SIGNIFICANT WEATHER AND/OR OBSTRUCTIONS TO VISIBILITY.

KYZ001>023-026-027-061>063-070>075-030100-
WESTERN AND SOUTH CENTRAL KENTUCKY

CITY           SKY/WX    TMP DP  RH WIND       PRES   REMARKS
PADUCAH        CLOUDY    38  21  50 E7        30.35F WCI  33
HENDERSON      MOCLDY    36  19  51 NE6       30.37S WCI  31
OWENSBORO      MOCLDY    37  20  50 NE8       30.37F WCI  31
HOPKINSVILLE   CLOUDY    41  26  55 NE8       30.32F
BOWLING GREEN  MOCLDY    41  20  43 E6        30.36S
GLASGOW        PTCLDY    38  22  52 NE3       30.36S
$$

KYZ024-025-028>034-038-045-046-053-030100-
NORTH CENTRAL KENTUCKY

CITY           SKY/WX    TMP DP  RH WIND       PRES   REMARKS
LOUISVILLE/SDF CLOUDY    36  19  50 NE6       30.40F WCI  31
LOUISVILLE/LOU MOCLDY    36  18  48 NE6       30.41F WCI  31
FORT KNOX      MOCLDY    35  19  52 NE8       30.36F WCI  29
$$

KYZ035>037-039>044-047>052-055>060-089>105-030100-
NORTHEAST KENTUCKY

CITY           SKY/WX    TMP DP  RH WIND       PRES   REMARKS
LEXINGTON      PTCLDY    31  21  66 N6        30.40S WCI  25
COVINGTON      MOCLDY    32  14  47 NE7       30.42S WCI  26
FRANKFORT      PTCLDY    33  20  58 E5        30.40S WCI  29
$$

KYZ054-064>069-076>088-106>120-030100-
SOUTHEAST KENTUCKY

CITY           SKY/WX    TMP DP  RH WIND       PRES   REMARKS
JACKSON        PTCLDY    36  18  48 NE5       30.36R WCI  32
LONDON         PTCLDY    40  18  41 N3        30.34S
SOMERSET       PTCLDY    36  23  60 NE5       30.37S WCI  32
MIDDLESBORO    PTCLDY    39  32  75 CALM      30.35R
MONTICELLO     CLEAR     38  26  62 NE6       30.36F WCI  33
$$



USA.gov is the U.S. government's official web portal to all federal, state and local government web resources and services.